Home   Weather   Lafayette   Past weeks

Flag for USA Past Weather in Lafayette, Louisiana, USA — Yesterday and Last 2 Weeks

Now
78 °F

Clear.


Feels Like: 80 °F
Forecast: 73 / 86 °F
Wind: 3 mph from Southeast

Location: Lafayette Regional Airport

Current Time: Apr 27, 2017 at 9:30:21 pm

Latest Report: Apr 27, 2017 at 7:53 pm


Visibility: 10 mi

Pressure: 29.74 "Hg

Humidity: 58%

Dew Point: 62 °F

Location of LafayetteLocation

Past Weather in Lafayette — Graph

°F

Lafayette Temperature Yesterday

Maximum temperature yesterday: 84 °F (at 12:53 pm)
Minimum temperature yesterday: 71 °F (at 10:53 pm)
Average temperature yesterday: 79 °F

High & Low Weather Summary for the Past Weeks

 TemperatureHumidityPressure
High89 °F (Apr 22, 2:53 pm)94% (Apr 17, 9:03 am)30.23 "Hg (Apr 17, 9:03 am)
Low55 °F (Apr 24, 2:53 am)27% (Apr 24, 3:53 pm)29.55 "Hg (Apr 26, 6:32 pm)
Average74 °F73%29.99 "Hg
* Reported Apr 12 7:53 pm — Apr 27 7:53 pm, Lafayette, Weather by CustomWeather, © 2017

Note: Actual official high and low records may vary slightly from our data, if they occured in-between our weather recording intervals... More about our weather records

Advertising

Lafayette Weather History for the Previous 24 Hours

Scroll right to see more
 ConditionsComfort  
Time TempWeatherWind HumidityBarometerVisibility
7:53 pm
Thu, Apr 27
78 °FClear.3 mph58%29.74 "Hg10 mi
6:53 pm83 °FSunny.5 mph48%29.73 "Hg10 mi
5:53 pm86 °FSunny.3 mph39%29.74 "Hg10 mi
4:53 pm86 °FSunny.7 mph37%29.74 "Hg10 mi
3:53 pm84 °FSunny.3 mph41%29.76 "Hg10 mi
2:53 pm83 °FSunny.No wind41%29.79 "Hg10 mi
1:53 pm80 °FSunny.5 mph47%29.81 "Hg10 mi
12:53 pm76 °FSunny.6 mph52%29.83 "Hg10 mi
11:53 am73 °FSunny.3 mph57%29.85 "Hg10 mi
10:53 am69 °FSunny.5 mph63%29.86 "Hg10 mi
9:53 am66 °FScattered clouds.7 mph65%29.86 "Hg10 mi
9:08 am64 °FOvercast.7 mph70%29.87 "Hg10 mi
8:21 am62 °FOvercast.7 mph73%29.85 "Hg10 mi
7:53 am62 °FOvercast.9 mph73%29.83 "Hg10 mi
6:53 am61 °FOvercast.10 mph75%29.80 "Hg10 mi
5:53 am62 °FOvercast.13 mph75%29.78 "Hg10 mi
4:53 am63 °FOvercast.12 mph75%29.76 "Hg10 mi
3:53 am64 °FOvercast.10 mph75%29.75 "Hg10 mi
3:21 am65 °FOvercast.13 mph78%29.75 "Hg10 mi
2:53 am66 °FPartly cloudy.10 mph75%29.75 "Hg10 mi
1:53 am70 °FPassing clouds.10 mph76%29.73 "Hg10 mi
12:53 am71 °FOvercast.5 mph76%29.72 "Hg10 mi
11:53 pm
Wed, Apr 26
71 °FClear.3 mph76%29.72 "Hg10 mi
10:53 pm71 °FMostly cloudy.3 mph76%29.71 "Hg10 mi
10:35 pm72 °FLight rain. Mostly cloudy.9 mph68%29.70 "Hg6 mi
9:53 pm80 °FMostly cloudy.6 mph85%29.65 "Hg8 mi
9:03 pm80 °FPassing clouds.9 mph81%29.61 "Hg9 mi
Weather by CustomWeather, © 2017

See weather overviewHow to use our weather pages